Regional Weather Roundup
Issued by NWS State College, PA

Home | Current Version | Previous Version | Graphics & Text | Print | Product List | Glossary On
Versions: 1 2 3 4 5 6 7 8 9 10 11 12 13 14 15 16 17 18 19 20 21 22 23 24 25 26 27 28 29 30 31 32 33 34 35 36 37 38 39 40 41 42 43 44 45 46 47 48 49 50
000
ASUS41 KCTP 250103
RWRCTP
REGIONAL WEATHER ROUNDUP
NATIONAL WEATHER SERVICE STATE COLLEGE PA
900 PM EDT SUN SEP 24 2017

Note: "fair" indicates few or no clouds below 12,000 feet with no
significant weather and/or obstructions to visibility.

* = STATION THAT DOES NOT REPORT PRECIPITATION /E.G. RAIN...SNOW...ETC/
    THUNDER OR FOG.

PAZ002>004-007>009-013>016-020>023-029>032-250200-
WESTERN PENNSYLVANIA

CITY           SKY/WX    TMP DP  RH WIND       PRES   REMARKS
ERIE           CLEAR     75  66  73 CALM      30.10S
MEADVILLE      CLEAR     76  68  76 NE3       30.14R
FRANKLIN*      CLEAR     74  65  73 NE3       30.15R
NEW CASTLE     FAIR      74  64  71 NE5       30.11S
BEAVER COUNTY  NOT AVBL
BUTLER*        CLEAR     70  64  81 CALM      30.11S
PITTSBURGH INT PTCLDY    77  63  61 CALM      30.10S
PITTSBURGH     CLEAR     82  59  45 NE3       30.10R
INDIANA*       CLEAR     70  66  88 CALM      30.15R
LATROBE        NOT AVBL
WASHINGTON CO* CLEAR     66  63  88 CALM      30.11R
$$

PAZ004>006-010>012-017>019-024>028-033>037-041-042-045-046-049>053-250200-
CENTRAL PENNSYLVANIA

CITY           SKY/WX    TMP DP  RH WIND       PRES   REMARKS
BRADFORD       CLEAR     74  64  71 E3        30.19R
DUBOIS         CLEAR     76  62  62 CALM      30.15R
CLEARFIELD     CLEAR     70  65  84 N7        30.15R
JOHNSTOWN      CLEAR     75  62  64 CALM      30.17R
ALTOONA        CLEAR     72  67  84 CALM      30.14R
STATE COLLEGE  CLEAR     75  64  69 CALM      30.12R
WILLIAMSPORT   CLEAR     74  68  81 CALM      30.08R
SELINSGROVE    CLEAR     69  68  96 CALM      30.08R FOG
FT INDIANTOWN  CLEAR     72  70  93 CALM      30.04R
CAPITAL CITY   CLEAR     75  68  78 CALM      30.06R
HARRISBURG     CLEAR     74  72  93 CALM      30.05R
YORK           CLEAR     68  67  96 CALM      30.07R
$$

PAZ038>040-043-044-047-048-054-055-060>062-067>071-250200-
EASTERN PENNSYLVANIA

CITY           SKY/WX    TMP DP  RH WIND       PRES   REMARKS
SCRANTON       CLEAR     76  66  71 E6        30.10R
MOUNT POCONO   CLEAR     67  65  93 NW5       30.15R
ALLENTOWN      CLEAR     77  65  66 CALM      30.07R
QUAKERTOWN*    CLEAR     70  68  94 CALM      30.08R
READING        CLEAR     77  69  76 CALM      30.05R
LANCASTER      CLEAR     77  68  73 CALM      30.07R
COATESVILLE    CLEAR     77  66  69 CALM      30.09S
POTTSTOWN      CLEAR     71  69  93 CALM      30.08R
BLUE BELL      CLEAR     68  66  94 CALM      30.07R
DOYLESTOWN     CLEAR     73  68  84 CALM      30.06R
WILLOW GROVE   NOT AVBL
NORTH PHILA    CLEAR     82  66  58 CALM      30.07R
PHILADELPHIA   CLEAR     78  65  63 S5        30.05S
$$




USA.gov is the U.S. government's official web portal to all federal, state and local government web resources and services.